| time (UTC) | temp F | wind direction | speed MPH | gust MPH | rain 1hr in | rain 24hr in | rain mn in | humidity % | barometer mb |
| 20260502220059 | 72 | 175 | 6.0 | 10.0 | 0.00 | 0.00 | 0.00 | 19 | 1021.9 |
| 20260502215606 | 72 | 174 | 3.0 | 7.0 | 0.00 | 0.00 | 0.00 | 19 | 1021.9 |
| 20260502215008 | 71 | 140 | 3.0 | 9.0 | 0.00 | 0.00 | 0.00 | 19 | 1022.0 |
| 20260502214602 | 71 | 163 | 5.0 | 9.0 | 0.00 | 0.00 | 0.00 | 19 | 1022.0 |
| 20260502214009 | 71 | 175 | 6.0 | 10.0 | 0.00 | 0.00 | 0.00 | 19 | 1022.2 |
| 20260502213601 | 71 | 190 | 3.0 | 10.0 | 0.00 | 0.00 | 0.00 | 20 | 1022.4 |
| 20260502213008 | 71 | 168 | 4.0 | 10.0 | 0.00 | 0.00 | 0.00 | 20 | 1022.5 |
| 20260502212604 | 71 | 315 | 2.0 | 10.0 | 0.00 | 0.00 | 0.00 | 20 | 1022.6 |
| 20260502212004 | 71 | 172 | 3.0 | 10.0 | 0.00 | 0.00 | 0.00 | 21 | 1022.6 |
| 20260502211513 | 70 | 355 | 2.0 | 8.0 | 0.00 | 0.00 | 0.00 | 22 | 1022.7 |
| 20260502211105 | 69 | 345 | 3.0 | 8.0 | 0.00 | 0.00 | 0.00 | 22 | 1022.8 |
| 20260502210507 | 69 | 350 | 1.0 | 6.0 | 0.00 | 0.00 | 0.00 | 23 | 1022.9 |
| 20260502205505 | 67 | 59 | 0.0 | 7.0 | 0.00 | 0.00 | 0.00 | 24 | 1022.9 |
| 20260502205100 | 67 | 274 | 2.0 | 7.0 | 0.00 | 0.00 | 0.00 | 25 | 1023.0 |
| 20260502204552 | 66 | 63 | 2.0 | 6.0 | 0.00 | 0.00 | 0.00 | 24 | 1023.0 |
| 20260502204059 | 66 | 87 | 2.0 | 8.0 | 0.00 | 0.00 | 0.00 | 24 | 1023.0 |
| 20260502203549 | 67 | 134 | 2.0 | 10.0 | 0.00 | 0.00 | 0.00 | 23 | 1023.1 |
| 20260502203059 | 68 | 177 | 4.0 | 10.0 | 0.00 | 0.00 | 0.00 | 23 | 1023.1 |
| 20260502202546 | 69 | 165 | 5.0 | 10.0 | 0.00 | 0.00 | 0.00 | 23 | 1023.2 |
| 20260502202037 | 69 | 349 | 3.0 | 11.0 | 0.00 | 0.00 | 0.00 | 24 | 1023.2 |
| 20260502201545 | 68 | 82 | 4.0 | 11.0 | 0.00 | 0.00 | 0.00 | 23 | 1023.2 |
| 20260502201037 | 68 | 154 | 3.0 | 8.0 | 0.00 | 0.00 | 0.00 | 23 | 1023.2 |
| 20260502200544 | 69 | 67 | 1.0 | 6.0 | 0.00 | 0.00 | 0.00 | 23 | 1023.4 |
| 20260502200108 | 69 | 38 | 2.0 | 7.0 | 0.00 | 0.00 | 0.00 | 23 | 1023.3 |
| 20260502195557 | 69 | 68 | 3.0 | 7.0 | 0.00 | 0.00 | 0.00 | 22 | 1023.3 |
| 20260502195048 | 69 | 127 | 2.0 | 6.0 | 0.00 | 0.00 | 0.00 | 23 | 1023.3 |
| 20260502194608 | 68 | 84 | 2.0 | 6.0 | 0.00 | 0.00 | 0.00 | 23 | 1023.4 |
| 20260502194047 | 68 | 264 | 1.0 | 6.0 | 0.00 | 0.00 | 0.00 | 22 | 1023.4 |
| 20260502193555 | 67 | 27 | 1.0 | 12.0 | 0.00 | 0.00 | 0.00 | 25 | 1023.5 |
| 20260502193046 | 68 | 109 | 7.0 | 12.0 | 0.00 | 0.00 | 0.00 | 25 | 1023.6 |
| 20260502192551 | 68 | 124 | 3.0 | 9.0 | 0.00 | 0.00 | 0.00 | 25 | 1023.5 |
| 20260502192058 | 66 | 117 | 1.0 | 5.0 | 0.00 | 0.00 | 0.00 | 27 | 1023.7 |
| 20260502191556 | 66 | 76 | 2.0 | 8.0 | 0.00 | 0.00 | 0.00 | 28 | 1023.7 |
| 20260502191057 | 66 | 79 | 4.0 | 8.0 | 0.00 | 0.00 | 0.00 | 28 | 1023.8 |
| 20260502190548 | 65 | 53 | 2.0 | 10.0 | 0.00 | 0.00 | 0.00 | 28 | 1023.9 |
| 20260502190054 | 65 | 111 | 4.0 | 10.0 | 0.00 | 0.00 | 0.00 | 30 | 1023.9 |
| 20260502185544 | 65 | 90 | 3.0 | 11.0 | 0.00 | 0.00 | 0.00 | 31 | 1024.0 |
| 20260502185035 | 65 | 100 | 4.0 | 11.0 | 0.00 | 0.00 | 0.00 | 30 | 1023.9 |
| 20260502184545 | 66 | 117 | 4.0 | 12.0 | 0.00 | 0.00 | 0.00 | 31 | 1024.1 |
| 20260502184051 | 65 | 204 | 5.0 | 12.0 | 0.00 | 0.00 | 0.00 | 30 | 1024.1 |
| 20260502183556 | 64 | 90 | 3.0 | 10.0 | 0.00 | 0.00 | 0.00 | 30 | 1024.2 |
| 20260502183049 | 65 | 159 | 5.0 | 10.0 | 0.00 | 0.00 | 0.00 | 30 | 1024.2 |
| 20260502182556 | 66 | 225 | 3.0 | 10.0 | 0.00 | 0.00 | 0.00 | 30 | 1024.3 |
| 20260502182100 | 65 | 169 | 3.0 | 9.0 | 0.00 | 0.00 | 0.00 | 31 | 1024.3 |
| 20260502181516 | 65 | 174 | 3.0 | 11.0 | 0.00 | 0.00 | 0.00 | 32 | 1024.5 |
| 20260502181059 | 65 | 152 | 5.0 | 12.0 | 0.00 | 0.00 | 0.00 | 33 | 1024.6 |
| 20260502180502 | 64 | 106 | 4.0 | 11.0 | 0.00 | 0.00 | 0.00 | 32 | 1024.6 |
| 20260502164050 | 59 | 165 | 6.0 | 11.0 | 0.00 | 0.00 | 0.00 | 42 | 1025.1 |
| 20260502163557 | 58 | 103 | 5.0 | 11.0 | 0.00 | 0.00 | 0.00 | 43 | 1025.0 |
| 20260502163105 | 58 | 125 | 6.0 | 12.0 | 0.00 | 0.00 | 0.00 | 42 | 1025.1 |
| 20260502162555 | 58 | 184 | 7.0 | 11.0 | 0.00 | 0.00 | 0.00 | 43 | 1025.1 |
| 20260502162104 | 57 | 48 | 3.0 | 14.0 | 0.00 | 0.00 | 0.00 | 45 | 1025.1 |
| 20260502161554 | 56 | 98 | 6.0 | 14.0 | 0.00 | 0.00 | 0.00 | 44 | 1025.1 |
| 20260502161044 | 56 | 105 | 6.0 | 12.0 | 0.00 | 0.00 | 0.00 | 45 | 1025.1 |
| 20260502160555 | 56 | 107 | 7.0 | 15.0 | 0.00 | 0.00 | 0.00 | 44 | 1025.1 |
| 20260502160106 | 56 | 144 | 5.0 | 15.0 | 0.00 | 0.00 | 0.00 | 45 | 1025.2 |
| 20260502152002 | 53 | 112 | 6.0 | 12.0 | 0.00 | 0.00 | 0.00 | 49 | 1025.1 |
| 20260502151610 | 53 | 133 | 5.0 | 12.0 | 0.00 | 0.00 | 0.00 | 50 | 1025.3 |
| 20260502151048 | 52 | 108 | 9.0 | 12.0 | 0.00 | 0.00 | 0.00 | 50 | 1025.3 |
| 20260502150556 | 52 | 129 | 6.0 | 11.0 | 0.00 | 0.00 | 0.00 | 51 | 1025.3 |
| 20260502150131 | 52 | 101 | 7.0 | 11.0 | 0.00 | 0.00 | 0.00 | 51 | 1025.3 |
| 20260502130536 | 43 | 90 | 8.0 | 15.0 | 0.00 | 0.00 | 0.00 | 64 | 1024.5 |
| 20260502123546 | 41 | 71 | 6.0 | 13.0 | 0.00 | 0.00 | 0.00 | 66 | 1024.0 |
| 20260502123054 | 41 | 90 | 6.0 | 13.0 | 0.00 | 0.00 | 0.00 | 66 | 1024.0 |
| 20260502122545 | 41 | 46 | 6.0 | 11.0 | 0.00 | 0.00 | 0.00 | 66 | 1023.9 |
| 20260502122034 | 41 | 88 | 5.0 | 11.0 | 0.00 | 0.00 | 0.00 | 66 | 1023.9 |
| 20260502121542 | 41 | 78 | 6.0 | 12.0 | 0.00 | 0.00 | 0.00 | 66 | 1023.9 |
| 20260502121035 | 41 | 69 | 7.0 | 12.0 | 0.00 | 0.00 | 0.00 | 66 | 1023.9 |
| 20260502120541 | 42 | 61 | 7.0 | 13.0 | 0.00 | 0.00 | 0.00 | 66 | 1023.9 |
| 20260502120105 | 42 | 45 | 7.0 | 15.0 | 0.00 | 0.00 | 0.00 | 66 | 1023.8 |
| 20260502115558 | 42 | 80 | 8.0 | 15.0 | 0.00 | 0.00 | 0.00 | 66 | 1023.8 |
| 20260502115045 | 42 | 48 | 6.0 | 15.0 | 0.00 | 0.00 | 0.00 | 66 | 1023.8 |
| 20260502114603 | 42 | 71 | 8.0 | 13.0 | 0.00 | 0.00 | 0.00 | 65 | 1023.8 |
| 20260502114044 | 42 | 74 | 7.0 | 14.0 | 0.00 | 0.00 | 0.00 | 65 | 1023.9 |
| 20260502113534 | 42 | 82 | 7.0 | 14.0 | 0.00 | 0.00 | 0.00 | 65 | 1023.9 |
| 20260502113055 | 42 | 87 | 9.0 | 16.0 | 0.00 | 0.00 | 0.00 | 65 | 1023.8 |
| 20260502112550 | 43 | 71 | 7.0 | 17.0 | 0.00 | 0.00 | 0.00 | 65 | 1023.8 |
| 20260502112057 | 43 | 39 | 8.0 | 17.0 | 0.00 | 0.00 | 0.00 | 65 | 1023.8 |
| 20260502111549 | 43 | 51 | 7.0 | 16.0 | 0.00 | 0.00 | 0.00 | 65 | 1023.8 |
| 20260502111058 | 43 | 39 | 9.0 | 16.0 | 0.00 | 0.00 | 0.00 | 65 | 1023.8 |
| 20260502110603 | 43 | 78 | 9.0 | 14.0 | 0.00 | 0.00 | 0.00 | 65 | 1023.7 |
| 20260502110005 | 43 | 82 | 7.0 | 14.0 | 0.00 | 0.00 | 0.00 | 65 | 1023.7 |
| 20260502105601 | 43 | 86 | 8.0 | 14.0 | 0.00 | 0.00 | 0.00 | 65 | 1023.6 |
| 20260502105005 | 43 | 60 | 8.0 | 14.0 | 0.00 | 0.00 | 0.00 | 65 | 1023.6 |
| 20260502104559 | 43 | 42 | 8.0 | 14.0 | 0.00 | 0.00 | 0.00 | 65 | 1023.7 |
| 20260502104004 | 43 | 73 | 7.0 | 14.0 | 0.00 | 0.00 | 0.00 | 65 | 1023.7 |
| 20260502103558 | 43 | 55 | 7.0 | 15.0 | 0.00 | 0.00 | 0.00 | 64 | 1023.7 |
| 20260502103109 | 43 | 71 | 8.0 | 13.0 | 0.00 | 0.00 | 0.00 | 64 | 1023.6 |
| 20260502102559 | 43 | 76 | 6.0 | 16.0 | 0.00 | 0.00 | 0.00 | 64 | 1023.7 |
| 20260502102046 | 43 | 124 | 9.0 | 16.0 | 0.00 | 0.00 | 0.00 | 64 | 1023.5 |
| 20260502101607 | 43 | 34 | 7.0 | 14.0 | 0.00 | 0.00 | 0.00 | 64 | 1023.5 |
| 20260502101100 | 43 | 58 | 8.0 | 14.0 | 0.00 | 0.00 | 0.00 | 64 | 1023.5 |
| 20260502100502 | 43 | 40 | 7.0 | 14.0 | 0.00 | 0.00 | 0.00 | 64 | 1023.5 |
| 20260502091046 | 44 | 49 | 6.0 | 12.0 | 0.00 | 0.00 | 0.00 | 64 | 1023.0 |
| 20260502090535 | 44 | 57 | 6.0 | 11.0 | 0.00 | 0.00 | 0.00 | 64 | 1022.9 |
| 20260502071057 | 46 | 95 | 6.0 | 12.0 | 0.00 | 0.00 | 0.00 | 58 | 1022.5 |
| 20260502070604 | 46 | 84 | 4.0 | 11.0 | 0.00 | 0.00 | 0.00 | 58 | 1022.6 |
| 20260502070012 | 46 | 88 | 6.0 | 12.0 | 0.00 | 0.00 | 0.00 | 57 | 1022.5 |
| 20260502065603 | 46 | 82 | 4.0 | 12.0 | 0.00 | 0.00 | 0.00 | 56 | 1022.5 |
| 20260502065007 | 46 | 93 | 5.0 | 12.0 | 0.00 | 0.00 | 0.00 | 56 | 1022.5 |
| 20260502064600 | 46 | 61 | 6.0 | 12.0 | 0.00 | 0.00 | 0.00 | 56 | 1022.5 |
| 20260502064004 | 46 | 86 | 6.0 | 11.0 | 0.00 | 0.00 | 0.00 | 55 | 1022.4 |
| 20260502063559 | 47 | 79 | 5.0 | 10.0 | 0.00 | 0.00 | 0.00 | 55 | 1022.4 |
| 20260502063055 | 47 | 71 | 5.0 | 11.0 | 0.00 | 0.00 | 0.00 | 55 | 1022.4 |
| 20260502062558 | 47 | 84 | 6.0 | 11.0 | 0.00 | 0.00 | 0.00 | 55 | 1022.3 |
| 20260502062048 | 47 | 95 | 4.0 | 9.0 | 0.00 | 0.00 | 0.00 | 54 | 1022.3 |
| 20260502061558 | 47 | 99 | 4.0 | 9.0 | 0.00 | 0.00 | 0.00 | 54 | 1022.3 |
| 20260502061102 | 47 | 65 | 4.0 | 9.0 | 0.00 | 0.00 | 0.00 | 54 | 1022.2 |
| 20260502060505 | 47 | 66 | 4.0 | 9.0 | 0.00 | 0.00 | 0.00 | 54 | 1022.2 |
| 20260502060109 | 48 | 65 | 5.0 | 9.0 | 0.00 | 0.00 | 0.00 | 54 | 1022.2 |
| 20260502055550 | 48 | 54 | 4.0 | 8.0 | 0.00 | 0.00 | 0.00 | 53 | 1022.2 |
| 20260502055059 | 48 | 71 | 4.0 | 7.0 | 0.00 | 0.00 | 0.00 | 53 | 1022.1 |
| 20260502054626 | 48 | 69 | 4.0 | 7.0 | 0.00 | 0.00 | 0.00 | 53 | 1022.0 |
| 20260502054006 | 48 | 86 | 4.0 | 7.0 | 0.00 | 0.00 | 0.00 | 52 | 1021.9 |
| 20260502053602 | 49 | 73 | 3.0 | 7.0 | 0.00 | 0.00 | 0.00 | 52 | 1021.9 |
| 20260502053005 | 49 | 59 | 3.0 | 8.0 | 0.00 | 0.00 | 0.00 | 52 | 1021.8 |
| 20260502052601 | 49 | 92 | 4.0 | 8.0 | 0.00 | 0.00 | 0.00 | 52 | 1021.7 |
| 20260502052052 | 50 | 81 | 4.0 | 9.0 | 0.00 | 0.00 | 0.00 | 51 | 1021.8 |
| 20260502051558 | 50 | 66 | 4.0 | 9.0 | 0.00 | 0.00 | 0.00 | 50 | 1021.7 |
| 20260502051048 | 50 | 82 | 4.0 | 11.0 | 0.00 | 0.00 | 0.00 | 49 | 1021.8 |
| 20260502050538 | 51 | 94 | 6.0 | 12.0 | 0.00 | 0.00 | 0.00 | 50 | 1021.8 |
| 20260502050048 | 51 | 98 | 6.0 | 12.0 | 0.00 | 0.00 | 0.00 | 51 | 1021.7 |
| 20260502045540 | 51 | 92 | 7.0 | 14.0 | 0.00 | 0.00 | 0.00 | 50 | 1021.6 |
| 20260502045046 | 51 | 119 | 9.0 | 13.0 | 0.00 | 0.00 | 0.00 | 50 | 1021.6 |
| 20260502044552 | 51 | 66 | 7.0 | 13.0 | 0.00 | 0.00 | 0.00 | 50 | 1021.5 |
| 20260502044102 | 51 | 84 | 6.0 | 12.0 | 0.00 | 0.00 | 0.00 | 49 | 1021.5 |
| 20260502043605 | 52 | 57 | 6.0 | 17.0 | 0.00 | 0.00 | 0.00 | 48 | 1021.4 |
| 20260502043007 | 52 | 121 | 7.0 | 17.0 | 0.00 | 0.00 | 0.00 | 48 | 1021.4 |
| 20260502042604 | 52 | 105 | 6.0 | 13.0 | 0.00 | 0.00 | 0.00 | 48 | 1021.3 |
| 20260502042006 | 52 | 136 | 8.0 | 13.0 | 0.00 | 0.00 | 0.00 | 48 | 1021.3 |
| 20260502041602 | 52 | 117 | 7.0 | 13.0 | 0.00 | 0.00 | 0.00 | 47 | 1021.2 |
| 20260502041004 | 53 | 116 | 7.0 | 13.0 | 0.00 | 0.00 | 0.00 | 47 | 1021.2 |
| 20260502040600 | 53 | 68 | 5.0 | 12.0 | 0.00 | 0.00 | 0.00 | 47 | 1021.2 |
| 20260502040001 | 53 | 80 | 7.0 | 16.0 | 0.00 | 0.00 | 0.00 | 47 | 1021.1 |
| 20260502035600 | 53 | 82 | 10.0 | 16.0 | 0.00 | 0.00 | 0.00 | 46 | 1021.0 |
| 20260502035103 | 53 | 77 | 8.0 | 16.0 | 0.00 | 0.00 | 0.00 | 46 | 1020.9 |
| 20260502034509 | 53 | 105 | 10.0 | 20.0 | 0.00 | 0.00 | 0.00 | 45 | 1020.8 |
| 20260502034102 | 53 | 75 | 10.0 | 20.0 | 0.00 | 0.00 | 0.00 | 45 | 1020.8 |
| 20260502033504 | 53 | 89 | 10.0 | 17.0 | 0.00 | 0.00 | 0.00 | 43 | 1020.6 |
| 20260502033100 | 54 | 98 | 7.0 | 16.0 | 0.00 | 0.00 | 0.00 | 42 | 1020.5 |
| 20260502032501 | 54 | 107 | 10.0 | 22.0 | 0.00 | 0.00 | 0.00 | 41 | 1020.5 |
| 20260502032058 | 54 | 84 | 8.0 | 22.0 | 0.00 | 0.00 | 0.00 | 40 | 1020.5 |
| 20260502031548 | 54 | 88 | 8.0 | 20.0 | 0.00 | 0.00 | 0.00 | 38 | 1020.4 |
| 20260502031056 | 54 | 51 | 12.0 | 20.0 | 0.00 | 0.00 | 0.00 | 38 | 1020.2 |
| 20260502030547 | 54 | 84 | 10.0 | 18.0 | 0.00 | 0.00 | 0.00 | 38 | 1020.2 |
| 20260502030105 | 55 | 55 | 10.0 | 19.0 | 0.00 | 0.00 | 0.00 | 36 | 1020.0 |
| 20260502025545 | 55 | 72 | 12.0 | 17.0 | 0.00 | 0.00 | 0.00 | 35 | 1019.8 |
| 20260502025036 | 55 | 68 | 9.0 | 13.0 | 0.00 | 0.00 | 0.00 | 34 | 1019.7 |
| 20260502024544 | 55 | 81 | 7.0 | 15.0 | 0.00 | 0.00 | 0.00 | 34 | 1019.6 |
| 20260502024050 | 56 | 103 | 9.0 | 15.0 | 0.00 | 0.00 | 0.00 | 33 | 1019.5 |
| 20260502023557 | 56 | 81 | 6.0 | 12.0 | 0.00 | 0.00 | 0.00 | 32 | 1019.4 |
| 20260502023048 | 56 | 71 | 5.0 | 10.0 | 0.00 | 0.00 | 0.00 | 31 | 1019.2 |
| 20260502022555 | 57 | 70 | 5.0 | 10.0 | 0.00 | 0.00 | 0.00 | 31 | 1019.1 |
| 20260502022101 | 57 | 66 | 4.0 | 11.0 | 0.00 | 0.00 | 0.00 | 29 | 1019.1 |
| 20260502021504 | 57 | 74 | 5.0 | 11.0 | 0.00 | 0.00 | 0.00 | 29 | 1019.0 |
| 20260502021105 | 58 | 85 | 3.0 | 9.0 | 0.00 | 0.00 | 0.00 | 29 | 1018.9 |
| 20260502020502 | 58 | 72 | 3.0 | 11.0 | 0.00 | 0.00 | 0.00 | 29 | 1018.8 |
| 20260502015504 | 59 | 45 | 6.0 | 12.0 | 0.00 | 0.00 | 0.00 | 29 | 1018.7 |
| 20260502015100 | 59 | 69 | 6.0 | 13.0 | 0.00 | 0.00 | 0.00 | 30 | 1018.7 |
| 20260502014604 | 59 | 55 | 6.0 | 14.0 | 0.00 | 0.00 | 0.00 | 30 | 1018.6 |
| 20260502014055 | 59 | 51 | 8.0 | 18.0 | 0.00 | 0.00 | 0.00 | 30 | 1018.5 |
| 20260502013601 | 60 | 36 | 9.0 | 18.0 | 0.00 | 0.00 | 0.00 | 30 | 1018.4 |
| 20260502013003 | 61 | 26 | 7.0 | 16.0 | 0.00 | 0.00 | 0.00 | 29 | 1018.4 |
| 20260502012559 | 62 | 67 | 9.0 | 16.0 | 0.00 | 0.00 | 0.00 | 27 | 1018.3 |
| 20260502012002 | 62 | 64 | 7.0 | 15.0 | 0.00 | 0.00 | 0.00 | 25 | 1018.1 |
| 20260502011507 | 63 | 355 | 7.0 | 18.0 | 0.00 | 0.00 | 0.00 | 18 | 1018.0 |
| 20260502011015 | 64 | 23 | 10.0 | 18.0 | 0.00 | 0.00 | 0.00 | 18 | 1017.8 |
| 20260502010521 | 64 | 313 | 9.0 | 15.0 | 0.00 | 0.00 | 0.00 | 16 | 1017.7 |
| 20260502010026 | 64 | 329 | 8.0 | 13.0 | 0.00 | 0.00 | 0.00 | 16 | 1017.7 |
| 20260502005532 | 65 | 325 | 7.0 | 13.0 | 0.00 | 0.00 | 0.00 | 15 | 1017.6 |
| 20260502005040 | 65 | 310 | 7.0 | 17.0 | 0.00 | 0.00 | 0.00 | 15 | 1017.6 |
| 20260502004547 | 65 | 287 | 6.0 | 14.0 | 0.00 | 0.00 | 0.00 | 15 | 1017.6 |
| 20260502004054 | 65 | 311 | 8.0 | 16.0 | 0.00 | 0.00 | 0.00 | 16 | 1017.5 |
| 20260502003545 | 65 | 298 | 10.0 | 16.0 | 0.00 | 0.00 | 0.00 | 15 | 1017.5 |
| 20260502003055 | 66 | 287 | 4.0 | 12.0 | 0.00 | 0.00 | 0.00 | 14 | 1017.5 |
| 20260502002559 | 66 | 311 | 7.0 | 16.0 | 0.00 | 0.00 | 0.00 | 14 | 1017.5 |
| 20260502002001 | 66 | 271 | 7.0 | 16.0 | 0.00 | 0.00 | 0.00 | 14 | 1017.4 |
| 20260502001557 | 66 | 263 | 10.0 | 16.0 | 0.00 | 0.00 | 0.00 | 14 | 1017.5 |
| 20260502001104 | 66 | 319 | 3.0 | 16.0 | 0.00 | 0.00 | 0.00 | 14 | 1017.3 |
| 20260502000505 | 66 | 288 | 9.0 | 16.0 | 0.00 | 0.00 | 0.00 | 13 | 1017.3 |
| 20260502000013 | 66 | 277 | 4.0 | 14.0 | 0.00 | 0.00 | 0.00 | 13 | 1017.3 |
| 20260501235508 | 66 | 273 | 3.0 | 13.0 | 0.00 | 0.00 | 0.00 | 13 | 1017.2 |
| 20260501235016 | 66 | 254 | 7.0 | 14.0 | 0.00 | 0.00 | 0.00 | 13 | 1017.4 |
| 20260501234502 | 66 | 276 | 6.0 | 20.0 | 0.00 | 0.00 | 0.00 | 12 | 1017.4 |
| 20260501234008 | 66 | 274 | 8.0 | 20.0 | 0.00 | 0.00 | 0.00 | 13 | 1017.3 |
| 20260501233602 | 66 | 317 | 7.0 | 18.0 | 0.00 | 0.00 | 0.00 | 13 | 1017.4 |
| 20260501233004 | 66 | 220 | 10.0 | 18.0 | 0.00 | 0.00 | 0.00 | 14 | 1017.3 |
| 20260501232513 | 67 | 252 | 8.0 | 16.0 | 0.00 | 0.00 | 0.00 | 13 | 1017.3 |
| 20260501232002 | 67 | 273 | 5.0 | 15.0 | 0.00 | 0.00 | 0.00 | 13 | 1017.2 |
| 20260501231510 | 67 | 290 | 7.0 | 14.0 | 0.00 | 0.00 | 0.00 | 12 | 1017.3 |
| 20260501231002 | 67 | 300 | 6.0 | 17.0 | 0.00 | 0.00 | 0.00 | 13 | 1017.2 |
| 20260501230507 | 67 | 308 | 10.0 | 18.0 | 0.00 | 0.00 | 0.00 | 12 | 1017.4 |
| 20260501225553 | 68 | 269 | 9.0 | 15.0 | 0.00 | 0.00 | 0.00 | 13 | 1017.4 |
| 20260501225059 | 67 | 311 | 8.0 | 16.0 | 0.00 | 0.00 | 0.00 | 13 | 1017.3 |
| 20260501224502 | 67 | 301 | 12.0 | 18.0 | 0.00 | 0.00 | 0.00 | 13 | 1017.4 |
| 20260501224015 | 68 | 291 | 7.0 | 12.0 | 0.00 | 0.00 | 0.00 | 13 | 1017.2 |
| 20260501223608 | 67 | 221 | 5.0 | 12.0 | 0.00 | 0.00 | 0.00 | 14 | 1017.1 |
| 20260501223025 | 67 | 238 | 8.0 | 20.0 | 0.00 | 0.00 | 0.00 | 14 | 1017.2 |
| 20260501222604 | 67 | 288 | 13.0 | 20.0 | 0.00 | 0.00 | 0.00 | 15 | 1017.3 |
| 20260501222005 | 67 | 331 | 6.0 | 15.0 | 0.00 | 0.00 | 0.00 | 15 | 1017.1 |
| 20260501221601 | 66 | 279 | 4.0 | 15.0 | 0.00 | 0.00 | 0.00 | 15 | 1017.3 |
| 20260501221002 | 67 | 275 | 7.0 | 16.0 | 0.00 | 0.00 | 0.00 | 15 | 1017.2 |
| 20260501220509 | 67 | 284 | 9.0 | 19.0 | 0.00 | 0.00 | 0.00 | 15 | 1017.4 |